Hourly Data Report for March 10, 2003

TORONTO CITY
ONTARIO

43°40'00.000" N
79°24'00.000" W
112.50 m
6158355
71508
XTO

Download Data

Hourly Data (March 2003)
Hourly Data Report for March 10, 2003
TIME
LST
Temp Definition
°C
Dew Point Definition
°C
Rel Hum Definition
%
Precip. Amount Definition
mm

Wind Dir Definition
10's deg

Wind Spd Definition
km/h
Visibility Definition
km
Stn Press Definition
kPa
Hmdx Definition


Wind Chill Definition


Weather Definition


00:00 -11.2 -17.5 60   LegendMM LegendMM LegendMM 100.09     LegendNANA
01:00 -11.7 -17.8 61   LegendMM LegendMM LegendMM 100.06     LegendNANA
02:00 -11.4 -16.9 64   LegendMM LegendMM LegendMM 100.11     LegendNANA
03:00 -11.1 -16.3 65   LegendMM LegendMM LegendMM 100.14     LegendNANA
04:00 -13.5 -18.8 64   LegendMM LegendMM LegendMM 100.29     LegendNANA
05:00 -13.8 -18.9 65   LegendMM LegendMM LegendMM 100.38     LegendNANA
06:00 -13.6 -18.9 64   LegendMM LegendMM LegendMM 100.47     LegendNANA
07:00 -13.8 -19.2 64   LegendMM LegendMM LegendMM 100.56     LegendNANA
08:00 -13.3 -18.6 64   LegendMM LegendMM LegendMM 100.67     LegendNANA
09:00 -11.8 -18.5 57   LegendMM LegendMM LegendMM 100.74     LegendNANA
10:00 -10.9 -19.2 50   LegendMM LegendMM LegendMM 100.77     LegendNANA
11:00 -10.4 -20.1 45   LegendMM LegendMM LegendMM 100.78     LegendNANA
12:00 -9.2 -19.6 43   LegendMM LegendMM LegendMM 100.79     LegendNANA
13:00 -9.2 -17.8 50   LegendMM LegendMM LegendMM 100.79     LegendNANA
14:00 -9.4 -19.2 45   LegendMM LegendMM LegendMM 100.74     LegendNANA
15:00 -9.3 -17.4 52   LegendMM LegendMM LegendMM 100.72     LegendNANA
16:00 -9.8 -19.1 47   LegendMM LegendMM LegendMM 100.73     LegendNANA
17:00 -10.0 -18.5 50   LegendMM LegendMM LegendMM 100.76     LegendNANA
18:00 -10.4 -18.2 53   LegendMM LegendMM LegendMM 100.76     LegendNANA
19:00 -10.5 -17.3 57   LegendMM LegendMM LegendMM 100.73     LegendNANA
20:00 -10.2 -16.6 59   LegendMM LegendMM LegendMM 100.71     LegendNANA
21:00 -10.2 -16.4 60   LegendMM LegendMM LegendMM 100.69     LegendNANA
22:00 -10.1 -15.9 62   LegendMM LegendMM LegendMM 100.65     LegendNANA
23:00 -10.0 -15.8 63   LegendMM LegendMM LegendMM 100.62     LegendNANA

Notes on Data Quality.

Legend

  • E = Estimated
  • M = Missing
  • NA = Not Available*
  • [empty] = Indicates an unobserved value
Date modified: